Location: Newark
(49.8969°N, 3.3422°E)
Time: 01:09:15
(UTC+00:00)

deb Explorer IX - Pass Details

Date: 24 January 2020
Orbit: 549 x 1099 km, 38.8° (Epoch: 27 February)

Event Time Altitude Azimuth Distance (km) Brightness Sun altitude
Rises 21:31:39 0° 217° (SW) 3,777 - -47.6°
Reaches altitude 10° 21:34:55 10° 203° (SSW) 2,883 - -48.0°
Maximum altitude 21:40:09 22° 156° (SSE) 2,165 - -48.7°
Drops below altitude 10° 21:45:29 10° 109° (ESE) 2,945 - -49.4°
Sets 21:48:51 0° 95° (E) 3,879 - -49.9°
